Location: *
(49.5667°N, 1.3667°W)
Time: 13:38:28
(UTC+00:00)

Cosmos 1602 Rocket - Pass Details

Date: 20 September 2019
Orbit: 603 x 634 km, 82.5° (Epoch: 21 October)

Event Time Altitude Azimuth Distance (km) Brightness Sun altitude
Rises 19:46:58 0° 356° (N) 2,891 7.3 -16.4°
Reaches altitude 10° 19:49:23 10° 6° (N) 1,977 6.3 -16.7°
Maximum altitude 19:53:22 34° 72° (ENE) 1,015 4.3 -17.3°
Enters shadow 19:53:54 33° 88° (E) 1,039 4.2 -17.4°
